Dewpoint
-21 -26 -27 -27 -26 -24 -24 -24 -25 -25 -25 -24 -23 -21 -20 -19 -18 -18 -18 -18 -18 -17 -18 -20 -21 -18 -8 -6 -6 -8 -7 -12 -11 -8 -7 -7 -4 -4 -4 -4 -4 -2 -6 -4 -3 -2 -3
-28 -26 -25 -25 -25 -25 -26 -26 -24 -20 -16 -14 -12 -12 -12 -12 -12 -12 -13 -13 -14 -17 -17 -16 -17 -14 -6 -7 -12 -9 -10 -13 -9 -8 -9 -10 -8 -6 -7 -7 -5 -6 -4 -5 -4 -4 -3
-26 -26 -26 -26 -26 -24 -19 -14 -12 -12 -12 -11 -12 -12 -13 -13 -14 -15 -14 -14 -14 -15 -17 -16 -15 -9 -5 -8 -14 -9 -9 -10 -8 -8 -8 -9 -10 -7 -6 -5 -4 -3 -3 -6 -5 -4 -4
-26 -26 -26 -23 -17 -13 -12 -12 -12 -12 -13 -14 -15 -16 -17 -18 -18 -19 -19 -18 -17 -15 -16 -15 -11 -4 -5 -9 -8 -8 -8 -7 -5 -6 -7 -8 -8 -4 -4 -3 -4 -4 -3 -7 -7 -3 -3
-25 -21 -15 -13 -13 -13 -13 -13 -14 -14 -15 -16 -16 -16 -17 -18 -18 -24 -24 -21 -16 -13 -10 -7 -4 -4 -4 -7 -8 -8 -9 -7 -6 -6 -5 -6 -3 -3 -2 -5 -7 -6 -8 -6 -8 -4 -2
-14 -13 -13 -13 -13 -13 -14 -15 -18 -19 -20 -19 -18 -13 -9 -13 -13 -18 -21 -14 -10 -6 -4 -2 -1 -2 -5 -5 -5 -5 -7 -5 -4 -4 -3 -2 -3 -4 -3 -5 -6 -7 -6 -7 -8 -6 -3
-14 -14 -13 -13 -13 -13 -14 -16 -17 -13 -13 -14 -18 -18 -15 -13 -11 -6 -13 -16 -4 1 -2 -1 -1 -1 -5 -5 -5 -4 -4 -3 -3 -2 -3 -3 -3 -4 -6 -6 -9 -10 -10 -9 -10 -9 -5
-15 -15 -14 -12 -12 -13 -15 -18 -21 -14 -11 -16 -18 -22 -22 -19 -14 -5 -14 1 3 3 3 -1 -2 -0 -3 -4 -3 -4 -4 -3 -3 -2 -4 -3 -2 -5 -6 -6 -4 -6 -7 -7 -7 -6 -6
-15 -13 -12 -11 -11 -11 -14 -17 -19 -17 -5 -8 -13 -14 -15 -16 -13 -11 -6 -2 2 3 3 -0 -2 -2 -3 -3 -3 -4 -2 -3 -3 -2 -3 -3 -5 -6 -5 -5 -5 -5 -4 -4 -3 -5 -5
-15 -12 -10 -9 -9 -10 -12 -16 -16 -7 -1 -6 -9 -12 -9 -11 -10 -9 -5 -3 -0 3 1 -4 -2 -2 -2 -4 -4 -4 -2 -4 -4 -3 -3 -3 -5 -4 -4 -4 -5 -3 -6 -5 -5 -4 -4
-14 -12 -9 -7 -6 -6 -6 -9 -7 -6 -7 -7 -10 -12 -7 -6 -5 -6 -6 -6 -1 1 2 -3 -3 -3 -2 -3 -3 -2 -3 -3 -3 -3 -4 -3 -4 -4 -3 -4 -6 -4 -6 -5 -4 -4 -3
-12 -7 -2 -1 1 1 -0 -1 -2 -2 -2 -3 -5 -10 -12 -8 -8 -8 -7 -10 1 -2 3 -3 -3 -2 -3 -2 -3 -3 -2 -3 -3 -3 -3 -4 -5 -5 -5 -5 -6 -6 -5 -5 -4 -4 0
-5 -2 1 1 0 -0 0 0 -1 -1 -2 -2 -4 -7 -10 -11 -6 -6 -7 -2 -7 -4 -9 -3 -1 -2 -2 -2 -2 -2 -1 -1 -1 2 0 -2 -3 -4 -6 -5 -5 -5 -4 1 1 1 0
0 1 1 0 1 0 -0 -2 -1 -0 -1 -3 -3 -4 -9 -9 -4 -3 -4 -2 -10 -11 -10 -2 -1 -2 -2 -2 -2 -2 -1 -1 -2 -3 -1 1 1 -3 -4 -3 -3 -3 -3 0 -1 -4 -6
-1 0 1 -1 -0 -1 -1 -0 -1 -2 -3 -3 -2 -4 -6 -2 1 1 1 -4 -12 -13 -2 -0 -5 -4 -4 -1 -1 -1 -1 -1 -3 -3 -0 -1 -1 -5 -5 -5 -5 -3 -1 -4 -2 -4 -1
-2 -0 -0 -0 -0 -1 -1 -2 -1 -1 -2 -0 1 -2 -2 2 1 1 -1 -5 -6 -3 -1 -1 -3 -7 -7 -3 -0 -1 -1 -3 -2 -5 -5 -3 -1 -2 -4 -5 -5 -4 -5 -1 -2 1 0
-1 0 -0 -1 -1 -2 -2 -2 -2 -2 -2 -0 -0 -2 -5 -1 -0 0 0 -2 -2 -1 -1 -1 -1 -2 -3 -2 0 -2 -6 -4 -2 -2 -1 -1 -0 -1 -1 -2 -2 -2 -2 -3 -2 -1 -1
-0 -0 -1 -1 -1 -2 -2 -2 -2 -3 -2 -1 -0 -1 -5 -3 -2 0 -1 -2 -0 -0 -1 -2 -0 -0 -2 -3 -3 -3 -4 -5 -2 -2 -1 -2 -0 1 -1 -3 -3 -2 -2 -2 3 1 1
-1 -1 -1 -2 -2 -2 -3 -3 -3 -4 -4 -1 -0 -1 -3 -4 -3 -4 -4 -3 -2 -3 -4 -3 -2 -2 -2 -1 0 -2 -2 0 -1 -1 -2 -1 -0 -1 -3 -3 -2 -1 -1 0 1 2 2
-1 -1 -1 -1 -2 -4 -4 -4 -3 -4 -2 -1 -0 -0 -2 -2 -1 -3 -3 -2 -3 -3 -3 -3 -3 -2 -2 -1 -2 1 1 -1 -1 -1 0 1 2 -1 -3 -7 -3 -1 0 -1 -1 2 0
-2 -2 -2 -2 -3 -3 -3 -4 -5 -5 -4 -1 -1 -1 -1 -2 -3 -3 -4 -3 -2 -4 -6 -6 -5 -5 -4 -1 -2 -3 -4 -5 -3 -0 1 1 3 1 2 0 -3 -3 -2 -1 1 -1 1
-3 -3 -3 -3 -3 -3 -3 -2 -3 -4 -4 -4 -1 -1 -1 -1 -2 -3 -3 -2 -3 -5 -4 -3 -4 -5 -5 -2 -2 -1 -2 -2 -2 -1 -0 0 0 -0 0 -2 -0 1 -2 -3 -3 -4 -3
-2 -3 -3 -2 -3 -3 -4 -3 -3 -4 -3 -2 -1 -2 -2 -3 -2 -1 -2 -3 -3 -4 -2 -4 -4 -4 -2 -3 -1 -1 -1 -0 -0 -0 -2 -1 -1 -0 -1 -3 -1 0 -1 -3 -4 -7 -5
-7 -6 -4 -5 -4 -5 -5 -5 -4 -4 -3 -3 -3 -2 -3 -2 -2 -2 -3 -2 -1 -3 -1 -2 -3 -1 -3 -4 -2 -1 -1 -1 -0 -1 -2 -1 -1 -1 0 -1 0 -5 -9 -6 -6 -9 -9
-10 -10 -8 -5 -6 -6 -6 -5 -4 -4 -4 -5 -4 -2 -2 -2 -2 -4 -3 -3 -2 -1 -1 -2 -3 -3 -3 -2 -2 -1 -1 -2 -4 -2 -3 -2 -1 -0 -0 -1 -4 -6 -8 -7 -6 -10 -11
-11 -8 -9 -9 -8 -6 -6 -6 -5 -5 -5 -4 -4 -4 -3 -2 -4 -3 -2 -3 -2 -3 -3 -4 -4 -4 -3 -2 -2 -1 -4 -5 -4 -4 -4 -3 -2 -0 -0 -1 -1 -8 -10 -11 -10 -8 -12
-14 -15 -15 -13 -12 -12 -11 -12 -13 -11 -8 -5 -5 -5 -3 -2 -3 -3 -2 -2 -2 -3 -2 -3 -3 -3 -3 -2 -1 -1 -1 -3 -2 -4 -4 -3 -2 -1 -2 -1 -8 -14 -14 -12 -6 -10 -13
-11 -9 -8 -7 -5 -4 -4 -4 -4 -4 -5 -3 -4 -3 -2 -2 -2 -2 -3 -3 -3 -2 -2 -3 -3 -2 -2 -1 -2 -3 -1 -2 -2 -7 -7 -5 -7 -4 -3 -2 -4 -16 -13 -11 -14 -14 -14
-9 -9 -9 -9 -9 -7 -6 -7 -7 -7 -6 -4 -3 -3 -3 -3 -3 -3 -4 -5 -6 -6 -6 -4 -3 -3 -2 -2 -2 -2 -2 -4 -4 -3 -14 -8 -14 -12 -14 -14 -16 -16 -16 -16 -16 -16 -16
Wind_Speed
15 16 18 19 20 20 21 21 22 23 23 24 25 26 27 28 29 29 30 28 27 25 24 23 21 19 15 10 17 20 15 12 13 16 18 18 16 12 10 8 9 13 13 12 16 13 12
16 16 17 18 19 20 22 23 24 25 26 27 28 29 31 32 32 32 31 29 28 26 25 24 23 19 13 11 14 13 12 13 15 17 18 19 11 14 6 7 11 4 10 14 11 13 10
17 18 18 19 20 21 22 23 25 27 28 29 29 29 29 29 30 31 31 29 25 26 25 24 23 18 16 22 16 14 13 13 14 15 16 18 17 12 8 5 10 4 10 13 15 13 9
18 19 20 21 22 23 24 25 27 28 27 28 29 30 30 30 31 32 30 28 25 24 23 23 18 12 11 12 15 16 17 15 15 15 14 13 14 8 7 2 3 6 4 9 4 9 4
19 19 20 21 22 23 25 26 27 28 28 28 28 29 30 31 32 34 31 28 25 22 19 13 9 8 8 8 11 14 14 13 13 12 11 10 10 6 5 8 9 9 14 13 8 11 6
19 20 22 23 24 25 25 25 26 27 28 29 31 31 32 32 32 31 28 25 17 12 8 7 8 5 9 2 4 6 14 13 9 11 6 6 6 7 8 11 14 13 11 10 11 6 10
20 22 24 26 26 26 26 26 28 29 28 28 29 31 32 31 32 23 29 20 9 3 5 8 4 7 2 1 1 4 10 14 8 9 9 9 10 15 21 22 22 14 15 16 13 4 7
22 23 25 26 26 26 27 28 28 27 29 31 30 29 30 31 28 19 23 9 11 12 15 18 23 24 29 25 9 12 13 12 10 13 7 6 19 21 13 13 17 18 20 20 16 12 9
22 23 24 25 26 26 26 27 27 27 28 30 30 29 29 29 17 23 16 15 14 11 7 9 5 4 2 8 7 9 18 9 8 14 16 22 11 2 17 15 13 18 19 19 19 5 10
23 24 24 25 26 26 27 27 27 25 28 30 30 28 28 30 10 25 7 15 15 9 5 3 2 2 3 3 3 7 15 7 7 13 13 14 18 15 12 14 16 18 11 15 15 8 9
24 24 25 25 26 26 27 28 26 27 28 30 30 28 25 21 23 19 15 14 12 5 7 3 2 2 2 3 1 5 11 9 10 9 6 5 5 7 15 23 11 10 3 9 9 10 6
25 24 24 24 25 25 27 28 28 29 30 31 33 29 27 23 22 16 15 9 5 3 8 1 2 0 3 4 3 3 4 5 2 7 9 17 1 4 6 5 13 5 5 4 2 4 9
25 23 23 23 24 22 26 28 29 29 31 33 34 31 25 22 17 15 10 3 3 5 2 1 2 3 4 4 4 7 7 10 7 5 8 7 18 7 9 9 7 11 8 4 7 5 9
23 23 23 24 24 24 25 25 27 30 33 32 34 33 25 17 13 6 0 3 7 2 4 3 3 7 6 3 5 5 5 9 14 7 7 8 9 11 12 17 8 21 17 8 9 11 6
23 24 23 24 24 24 24 26 27 28 29 29 32 34 21 7 3 2 2 5 5 2 3 7 7 5 4 3 3 3 7 12 4 14 11 5 7 1 5 2 6 6 10 12 13 8 5
23 25 24 25 24 22 24 24 26 27 26 28 28 33 8 5 5 1 3 6 4 3 5 2 5 3 6 3 4 3 4 2 3 5 5 3 8 4 3 2 5 6 4 5 6 7 12
22 23 24 25 25 24 24 24 25 27 27 27 25 12 5 4 4 5 5 6 5 6 5 4 4 7 7 6 6 8 8 4 3 4 4 4 6 5 2 10 13 6 9 6 3 6 9
22 23 24 25 26 25 24 25 26 27 27 25 14 3 9 10 5 3 6 5 5 4 4 7 6 12 16 15 14 13 16 13 1 3 5 5 4 10 16 1 4 5 9 9 7 10 5
23 23 24 25 25 26 24 26 26 25 24 24 8 8 8 3 4 7 8 12 10 17 17 7 9 8 8 9 7 11 11 6 8 5 5 6 6 10 11 6 4 8 6 2 5 2 11
25 25 25 26 24 24 23 24 24 24 23 21 10 3 4 7 8 8 11 12 11 5 8 10 13 14 17 16 15 9 5 3 7 10 13 1 8 17 15 8 4 6 11 9 7 4 3
25 25 25 24 25 24 22 22 22 24 22 21 5 3 3 4 7 12 15 8 15 19 12 18 9 13 16 16 19 21 15 14 8 5 5 4 9 11 15 12 9 15 13 11 11 11 8
25 22 22 22 24 25 23 23 23 23 23 19 7 5 5 7 12 16 14 9 17 22 13 16 14 19 18 18 19 23 19 16 16 4 3 4 4 4 5 11 9 9 12 12 14 16 14
23 23 22 23 24 24 22 19 22 19 18 8 11 18 12 12 10 6 12 18 16 13 11 24 18 14 16 17 16 18 22 21 10 6 6 4 3 2 7 4 5 7 12 15 2 6 4
21 20 20 20 20 18 18 18 19 17 16 17 17 17 6 9 6 12 16 19 20 19 16 24 19 12 13 20 24 21 18 16 13 16 14 10 10 6 5 7 10 5 6 1 11 8 7
22 22 21 21 20 19 18 19 18 16 15 18 17 12 6 7 7 17 11 14 23 18 19 18 32 28 24 9 6 7 2 3 7 12 10 11 7 5 7 6 3 3 4 2 2 4 7
21 22 22 21 19 19 18 18 17 16 17 17 17 14 13 7 7 9 13 13 7 10 11 12 21 17 7 4 5 4 5 3 3 3 3 4 7 6 4 5 6 5 5 13 6 3 6
22 22 21 21 21 20 19 19 18 16 16 14 19 14 15 12 18 12 6 6 3 5 6 5 5 4 6 4 4 4 1 3 2 3 2 2 4 11 11 7 4 10 14 12 5 3 8
20 20 20 20 20 20 19 19 19 18 15 15 19 13 11 6 16 7 7 6 10 6 4 6 7 3 2 3 3 3 2 2 1 4 4 2 4 1 4 6 4 27 1 3 5 7 10
20 20 21 21 21 21 21 21 20 19 17 15 15 11 13 9 8 9 2 7 8 7 8 6 8 12 5 4 3 2 2 1 2 1 7 2 4 3 5 3 7 14 16 12 12 10 12
Wind_Direction
359 356 353 350 348 347 344 342 340 337 335 332 330 327 324 321 319 316 314 311 310 306 303 301 299 302 297 263 250 262 249 233 209 203 206 199 188 200 210 206 200 237 252 248 250 252 253
352 350 348 346 345 344 343 341 339 335 332 330 328 326 325 324 321 315 311 308 304 299 296 293 293 295 269 244 260 249 236 222 211 206 205 202 211 208 218 218 206 216 240 257 259 251 239
348 346 345 344 343 341 337 335 334 332 331 332 330 328 325 323 319 318 317 315 309 297 292 289 286 279 251 254 256 246 230 224 220 217 215 214 217 194 190 215 227 251 271 267 250 247 231
344 343 342 342 339 337 337 338 339 336 335 333 330 328 327 328 326 323 321 322 313 302 294 289 283 263 248 251 246 242 232 222 216 215 218 218 211 206 216 199 204 237 232 263 167 183 189
342 342 341 339 339 340 344 343 339 337 334 332 330 328 328 331 331 325 326 326 319 305 297 288 266 227 257 252 240 231 215 217 213 206 207 200 180 206 181 221 242 215 251 229 267 200 148
346 345 345 344 344 345 342 339 335 334 333 332 331 331 332 335 339 335 332 334 321 312 302 279 240 243 239 243 213 214 206 198 193 189 165 177 197 213 213 203 234 244 232 233 236 178 206
348 349 348 345 344 342 339 338 338 339 337 336 335 331 331 335 340 340 345 356 356 315 307 257 250 266 232 211 268 201 193 185 174 179 199 196 212 217 223 220 240 278 265 260 259 251 250
348 348 347 344 344 342 340 339 336 336 338 336 337 337 335 336 343 348 351 51 18 311 302 285 269 259 260 258 266 235 205 184 192 215 194 216 238 245 263 260 244 246 259 263 274 266 240
345 343 342 342 342 343 341 341 340 337 339 339 340 340 340 337 347 351 1 20 351 329 275 295 253 255 281 188 221 224 196 199 215 230 221 236 236 319 236 241 238 239 250 258 264 267 239
337 338 339 340 340 340 340 342 344 344 340 340 342 341 342 338 352 348 4 345 342 337 287 234 221 220 172 187 242 205 192 192 203 238 234 252 262 246 234 241 237 257 230 250 247 243 259
335 335 338 339 340 341 343 342 342 343 342 341 342 340 336 342 330 343 329 332 334 334 317 75 112 155 198 227 83 211 197 213 221 197 191 216 200 206 222 237 229 263 228 226 236 234 259
336 337 338 336 334 336 337 340 338 337 338 338 338 340 332 330 329 328 329 330 333 254 250 154 90 244 254 208 214 151 187 210 254 239 241 260 281 223 219 204 198 144 149 143 165 227 251
336 335 335 332 334 334 331 331 333 334 334 334 335 338 333 318 317 319 327 346 266 227 43 53 343 3 329 242 220 198 190 194 214 208 227 225 239 231 210 219 187 194 188 228 222 202 252
334 333 331 331 331 331 329 328 325 329 331 331 332 337 332 312 309 315 180 190 221 259 294 7 325 289 244 211 218 213 218 235 224 232 269 258 257 192 189 218 221 205 209 218 247 245 266
330 329 330 327 328 327 323 324 328 324 329 330 329 338 334 324 340 336 220 214 256 262 341 331 299 258 240 226 269 259 231 255 261 207 225 239 246 145 218 200 208 166 210 245 262 248 257
332 331 332 328 331 328 322 323 323 324 323 325 326 337 345 12 348 9 234 254 273 328 333 307 281 256 280 288 259 245 231 148 242 216 225 259 273 192 154 193 219 224 138 185 212 236 234
330 326 327 327 330 327 324 320 318 318 319 323 321 329 305 327 301 244 238 250 296 322 334 283 288 273 268 280 251 266 259 253 209 180 208 249 237 207 189 211 219 190 214 218 291 242 248
328 333 330 333 328 329 327 325 326 326 321 328 304 269 293 278 284 246 248 288 328 288 319 292 267 259 260 262 272 254 257 246 181 206 222 213 267 254 255 111 326 309 264 248 236 224 233
333 333 332 332 329 330 330 324 324 325 327 325 275 276 277 236 252 272 267 264 269 274 276 270 281 281 291 266 270 255 270 353 327 254 239 180 220 252 239 233 211 233 212 159 103 84 232
333 333 333 329 335 334 331 324 326 323 327 323 290 287 277 224 264 272 274 280 270 261 263 265 281 298 287 271 281 286 263 290 315 276 280 347 249 241 247 260 114 192 191 185 189 207 228
334 331 329 330 329 329 329 329 330 328 327 326 276 282 279 269 242 260 275 272 277 279 268 282 284 267 281 297 300 286 276 307 280 323 306 266 254 254 259 269 234 231 202 195 213 236 240
337 338 338 332 327 326 323 328 327 324 331 321 283 281 247 253 271 264 259 240 258 273 281 274 264 280 290 284 276 281 287 275 263 236 255 180 256 308 271 276 256 257 259 251 244 254 257
347 344 338 333 330 330 329 327 330 330 331 322 306 305 297 285 284 274 268 265 260 270 247 258 273 285 282 285 294 288 282 264 234 239 254 242 245 283 271 254 231 239 236 254 160 55 341
349 342 338 336 335 337 337 335 329 327 329 320 312 315 285 295 284 292 287 273 269 261 258 281 276 268 263 303 300 277 251 252 241 241 240 256 260 260 259 195 229 56 28 316 105 70 58
358 357 355 351 352 347 339 334 332 325 322 315 316 307 278 282 281 292 291 279 274 269 269 267 281 267 284 284 284 272 219 255 240 240 236 229 251 262 257 234 85 165 51 52 18 76 24
1 359 355 348 343 341 339 338 337 326 325 317 311 310 285 277 262 304 290 294 286 276 292 258 283 283 258 250 260 247 250 229 229 160 79 215 251 254 237 243 231 68 23 350 307 146 23
1 353 350 349 347 343 340 336 333 329 322 315 310 320 293 252 281 274 267 291 276 281 261 275 296 282 247 241 250 278 319 349 207 246 174 198 219 230 238 254 96 352 315 313 213 66 19
352 350 350 347 346 341 339 338 335 331 326 316 309 307 301 285 300 317 303 324 321 295 307 357 302 212 244 254 273 296 257 185 227 42 8 8 319 21 282 227 194 351 42 356 1 33 26
345 342 341 336 333 333 332 331 327 320 313 304 306 322 308 276 292 308 2 23 13 346 310 298 284 292 250 253 239 267 252 30 353 118 27 74 9 11 16 75 63 36 57 44 36 32 18
Height
1565 1563 1561 1558 1555 1552 1549 1545 1542 1539 1535 1531 1527 1524 1519 1515 1511 1507 1503 1500 1497 1494 1491 1488 1486 1485 1484 1483 1474 1471 1471 1471 1472 1473 1475 1476 1478 1480 1478 1478 1480 1478 1473 1474 1473 1473 1473
1564 1562 1559 1556 1553 1550 1546 1542 1539 1535 1532 1528 1524 1519 1515 1510 1506 1501 1497 1494 1491 1487 1485 1482 1480 1479 1480 1476 1466 1466 1466 1467 1468 1469 1470 1471 1472 1474 1474 1473 1474 1470 1471 1470 1469 1467 1468
1563 1560 1557 1554 1551 1548 1544 1540 1536 1533 1529 1524 1520 1515 1510 1506 1501 1495 1490 1486 1483 1479 1477 1475 1473 1472 1470 1464 1461 1461 1462 1464 1466 1466 1467 1468 1469 1471 1470 1470 1470 1470 1469 1463 1459 1459 1461
1562 1559 1556 1553 1549 1546 1542 1538 1534 1530 1526 1521 1517 1512 1506 1501 1495 1490 1484 1480 1475 1472 1468 1467 1466 1466 1462 1456 1455 1457 1459 1461 1463 1464 1465 1466 1467 1469 1469 1470 1469 1468 1468 1459 1448 1455 1456
1560 1557 1554 1551 1547 1543 1539 1535 1532 1527 1523 1518 1513 1508 1503 1497 1491 1484 1479 1474 1469 1465 1462 1461 1462 1463 1457 1452 1452 1453 1455 1458 1460 1462 1463 1464 1465 1466 1467 1465 1464 1461 1449 1452 1448 1450 1453
1559 1556 1552 1549 1545 1541 1537 1533 1529 1525 1520 1515 1510 1504 1499 1494 1488 1481 1475 1470 1464 1462 1460 1459 1459 1464 1452 1450 1449 1450 1451 1454 1458 1460 1463 1464 1464 1460 1460 1459 1448 1441 1451 1447 1442 1445 1449
1557 1553 1550 1546 1542 1538 1534 1530 1526 1522 1517 1512 1508 1503 1497 1492 1487 1480 1472 1468 1468 1465 1460 1458 1456 1452 1449 1449 1449 1449 1450 1452 1455 1457 1456 1459 1457 1449 1441 1442 1436 1438 1436 1436 1435 1442 1445
1555 1551 1548 1544 1541 1537 1532 1528 1524 1519 1515 1510 1506 1500 1495 1490 1486 1481 1476 1475 1480 1479 1461 1449 1446 1445 1444 1448 1448 1447 1450 1452 1451 1448 1453 1456 1444 1439 1439 1441 1443 1442 1439 1436 1435 1441 1446
1553 1549 1545 1542 1538 1534 1530 1526 1521 1517 1513 1508 1504 1499 1494 1488 1485 1483 1479 1479 1478 1476 1470 1446 1442 1442 1441 1443 1443 1442 1445 1446 1446 1445 1445 1440 1432 1440 1440 1440 1442 1436 1436 1434 1435 1440 1441
1551 1547 1544 1540 1536 1532 1528 1524 1519 1516 1512 1507 1503 1498 1493 1486 1487 1484 1481 1480 1477 1475 1465 1442 1442 1441 1442 1442 1441 1439 1441 1445 1446 1441 1442 1438 1432 1436 1437 1435 1433 1430 1431 1436 1436 1441 1433
1549 1545 1541 1538 1534 1530 1526 1522 1517 1513 1509 1505 1501 1497 1493 1489 1486 1484 1483 1480 1478 1477 1459 1442 1442 1442 1441 1443 1442 1441 1441 1443 1438 1438 1441 1427 1432 1435 1432 1424 1430 1428 1431 1432 1435 1434 1436
1546 1542 1539 1536 1532 1528 1525 1521 1516 1512 1507 1503 1498 1495 1491 1488 1485 1482 1479 1478 1477 1473 1458 1438 1440 1441 1442 1440 1439 1439 1441 1442 1441 1439 1437 1429 1433 1429 1423 1425 1427 1428 1430 1432 1435 1431 1428
1543 1540 1537 1534 1530 1527 1524 1520 1516 1511 1506 1502 1496 1492 1489 1485 1482 1479 1478 1479 1475 1464 1439 1441 1442 1442 1443 1436 1435 1436 1436 1436 1432 1437 1428 1425 1421 1423 1424 1424 1427 1425 1423 1422 1422 1431 1409
1541 1538 1534 1531 1527 1524 1521 1517 1513 1510 1505 1500 1495 1490 1485 1481 1478 1477 1477 1477 1472 1444 1441 1449 1447 1443 1439 1433 1430 1431 1429 1425 1426 1427 1421 1417 1412 1415 1415 1411 1408 1415 1414 1410 1407 1395 1391
1538 1535 1531 1528 1524 1521 1518 1515 1511 1507 1503 1497 1491 1486 1481 1479 1478 1477 1478 1469 1445 1448 1453 1450 1442 1438 1432 1434 1434 1430 1426 1420 1418 1421 1419 1413 1410 1413 1414 1413 1411 1414 1415 1405 1407 1401 1410
1534 1531 1528 1524 1520 1518 1514 1511 1509 1505 1501 1496 1490 1487 1481 1479 1479 1479 1477 1465 1457 1457 1456 1453 1446 1438 1433 1431 1432 1429 1421 1419 1418 1420 1421 1413 1411 1410 1410 1412 1411 1408 1406 1412 1410 1408 1400
1531 1528 1524 1521 1517 1514 1511 1508 1504 1502 1498 1493 1489 1486 1481 1479 1479 1479 1473 1463 1461 1459 1459 1456 1448 1443 1439 1437 1433 1427 1417 1416 1417 1418 1419 1417 1414 1405 1411 1404 1396 1406 1402 1403 1401 1395 1388
1526 1523 1520 1517 1515 1512 1508 1506 1502 1499 1495 1489 1487 1484 1479 1477 1480 1473 1468 1464 1466 1459 1458 1454 1449 1442 1438 1433 1429 1426 1418 1415 1417 1415 1413 1411 1410 1405 1401 1405 1410 1407 1398 1397 1402 1396 1398
1523 1519 1517 1514 1511 1508 1505 1503 1500 1496 1494 1489 1482 1477 1474 1476 1473 1468 1468 1465 1462 1457 1455 1451 1446 1442 1438 1435 1432 1422 1420 1421 1420 1417 1410 1410 1405 1402 1399 1408 1406 1402 1401 1405 1414 1416 1404
1519 1516 1513 1510 1508 1505 1501 1498 1496 1494 1492 1489 1485 1477 1474 1473 1471 1470 1465 1463 1459 1454 1452 1449 1445 1444 1440 1435 1433 1427 1425 1422 1421 1418 1416 1415 1407 1397 1385 1381 1391 1399 1400 1402 1406 1412 1409
1516 1513 1509 1507 1504 1501 1498 1495 1493 1490 1488 1487 1483 1480 1476 1469 1464 1465 1463 1461 1459 1453 1451 1448 1442 1439 1438 1438 1433 1426 1419 1419 1420 1420 1417 1416 1402 1401 1399 1397 1393 1393 1396 1403 1410 1407 1413
1512 1509 1506 1503 1500 1497 1494 1492 1490 1487 1485 1483 1483 1478 1471 1465 1464 1460 1458 1456 1450 1444 1449 1443 1439 1436 1435 1436 1432 1428 1425 1422 1418 1418 1416 1414 1409 1406 1405 1404 1402 1402 1397 1396 1398 1398 1399
1508 1505 1502 1499 1496 1493 1490 1489 1486 1484 1482 1479 1477 1476 1474 1466 1461 1458 1451 1448 1442 1443 1440 1437 1435 1434 1430 1428 1428 1424 1421 1418 1418 1413 1410 1410 1405 1405 1402 1402 1399 1400 1397 1396 1406 1423 1422
1505 1502 1499 1496 1492 1488 1486 1484 1482 1481 1480 1478 1476 1473 1471 1460 1458 1454 1449 1447 1441 1437 1438 1433 1435 1433 1424 1424 1421 1415 1411 1408 1406 1406 1408 1405 1406 1405 1397 1403 1392 1409 1418 1418 1417 1435 1437
1503 1499 1496 1493 1490 1487 1484 1481 1478 1477 1477 1474 1472 1473 1467 1459 1454 1448 1444 1441 1436 1434 1433 1432 1423 1425 1424 1421 1418 1407 1403 1406 1400 1399 1401 1404 1406 1399 1395 1388 1403 1415 1425 1425 1421 1442 1445
1502 1499 1495 1493 1488 1485 1481 1478 1476 1472 1471 1468 1467 1466 1464 1459 1447 1446 1443 1437 1434 1431 1427 1425 1421 1420 1419 1418 1411 1403 1393 1387 1391 1396 1400 1404 1404 1400 1392 1388 1386 1427 1434 1436 1433 1432 1449
1501 1498 1495 1493 1487 1482 1478 1473 1470 1466 1466 1466 1460 1461 1458 1451 1444 1442 1438 1435 1434 1432 1426 1423 1421 1418 1416 1411 1403 1397 1393 1400 1392 1390 1395 1397 1397 1393 1385 1386 1426 1448 1444 1438 1423 1443 1452
1501 1498 1493 1490 1486 1481 1475 1471 1469 1467 1462 1461 1457 1456 1455 1449 1443 1440 1438 1436 1433 1431 1424 1423 1421 1414 1413 1408 1402 1394 1395 1396 1395 1416 1416 1409 1419 1400 1397 1385 1403 1452 1444 1439 1459 1456 1454
1499 1495 1490 1486 1481 1478 1474 1469 1464 1463 1460 1455 1453 1452 1450 1447 1444 1440 1438 1437 1436 1435 1433 1426 1421 1417 1412 1406 1402 1400 1396 1401 1400 1397 1434 1425 1452 1446 1455 1458 1466 1464 1462 1462 1461 1459 1457